sat.trackr.live / text

‹ back to catalog

TIANQI-30

NORAD 61196 · 2024-170B

PAYLOAD ACTIVE UNKNOWN

§ Identity

Operator
Country
PRC
Launch date
2024-09-20
Launch site
XICLF
Launch vehicle
Mass (kg)
RCS (m²)

External: N2YO · Heavens-Above · Gunter

§ Orbital elements

Epoch: 2026-05-25T03:29:11.141376Z

Period
102.92 min
Inclination
44.8581°
Eccentricity
0.0007210
Mean motion
13.99138840 rev/d
Perigee alt
891.5 km
Apogee alt
902.0 km
Semi-major
7,274.9 km
B*
1.3194e-4
RAAN
239.7191°
Arg perigee
341.8918°
Mean anomaly
18.1655°
Rev number
8,582

§ Raw data

TIANQI-301 61196U 24170B   26145.14526784  .00000065  00000+0  13194-3 0  99932 61196  44.8581 239.7191 0007210 341.8918  18.1655 13.99138840 85826

JSON: /api/v1/satellites/61196 · /tle

For live sub-satellite position, see the globe view (requires WebGL).

§ Visibility from observer

Set your observer location to see the next 7 days of passes ≥ 10°. The values pass through the URL so the page stays shareable.

No JS? Fill the form by hand. The geolocation button needs JavaScript.